CCSDS_OMM_VERS = 2.0 CREATION_DATE = ORIGINATOR = OBJECT_NAME = OPS 7218 (TRANSIT 16) OBJECT_ID = 1967-048A CENTER_NAME = EARTH REF_FRAME = TEME TIME_SYSTEM = UTC MEAN_ELEMENT_THEORY = SGP/SGP4 EPOCH = 2026-09-12T05:39:20.394144 MEAN_MOTION = 13.50779374 ECCENTRICITY = .00214556 INCLINATION = 89.6785 RA_OF_ASC_NODE = 345.0358 ARG_OF_PERICENTER = 49.6128 MEAN_ANOMALY = 338.9399 EPHEMERIS_TYPE = 0 CLASSIFICATION_TYPE = U NORAD_CAT_ID = 2807 ELEMENT_SET_NO = 999 REV_AT_EPOCH = 91968 BSTAR = .96862E-4 MEAN_MOTION_DOT = .73000E-6 MEAN_MOTION_DDOT = 0 CCSDS_OMM_VERS = 2.0 CREATION_DATE = ORIGINATOR = OBJECT_NAME = OPS 4947 (TRANSIT 17) OBJECT_ID = 1967-092A CENTER_NAME = EARTH REF_FRAME = TEME TIME_SYSTEM = UTC MEAN_ELEMENT_THEORY = SGP/SGP4 EPOCH = 2026-09-12T06:17:13.571232 MEAN_MOTION = 13.53511841 ECCENTRICITY = .00485992 INCLINATION = 89.2619 RA_OF_ASC_NODE = 3.7262 ARG_OF_PERICENTER = 159.5284 MEAN_ANOMALY = 229.2898 EPHEMERIS_TYPE = 0 CLASSIFICATION_TYPE = U NORAD_CAT_ID = 2965 ELEMENT_SET_NO = 999 REV_AT_EPOCH = 90797 BSTAR = .10302E-3 MEAN_MOTION_DOT = .81000E-6 MEAN_MOTION_DDOT = 0 CCSDS_OMM_VERS = 2.0 CREATION_DATE = ORIGINATOR = OBJECT_NAME = OPS 7034 (TRANSIT 18) OBJECT_ID = 1968-012A CENTER_NAME = EARTH REF_FRAME = TEME TIME_SYSTEM = UTC MEAN_ELEMENT_THEORY = SGP/SGP4 EPOCH = 2026-09-12T02:26:25.746432 MEAN_MOTION = 13.51623231 ECCENTRICITY = .00758794 INCLINATION = 90.0212 RA_OF_ASC_NODE = 274.3386 ARG_OF_PERICENTER = 98.476 MEAN_ANOMALY = 321.7539 EPHEMERIS_TYPE = 0 CLASSIFICATION_TYPE = U NORAD_CAT_ID = 3133 ELEMENT_SET_NO = 999 REV_AT_EPOCH = 60611 BSTAR = .13152E-3 MEAN_MOTION_DOT = .97000E-6 MEAN_MOTION_DDOT = 0 CCSDS_OMM_VERS = 2.0 CREATION_DATE = ORIGINATOR = OBJECT_NAME = NNSS 19 (TRANSIT 19) OBJECT_ID = 1970-067A CENTER_NAME = EARTH REF_FRAME = TEME TIME_SYSTEM = UTC MEAN_ELEMENT_THEORY = SGP/SGP4 EPOCH = 2026-09-11T23:55:50.628864 MEAN_MOTION = 13.51377659 ECCENTRICITY = .01701554 INCLINATION = 90.0173 RA_OF_ASC_NODE = 234.8752 ARG_OF_PERICENTER = 220.5732 MEAN_ANOMALY = 138.2637 EPHEMERIS_TYPE = 0 CLASSIFICATION_TYPE = U NORAD_CAT_ID = 4507 ELEMENT_SET_NO = 999 REV_AT_EPOCH = 75912 BSTAR = .74710E-4 MEAN_MOTION_DOT = .62000E-6 MEAN_MOTION_DDOT = 0 CCSDS_OMM_VERS = 2.0 CREATION_DATE = ORIGINATOR = OBJECT_NAME = NNSS 20 (TRANSIT 20) OBJECT_ID = 1973-081A CENTER_NAME = EARTH REF_FRAME = TEME TIME_SYSTEM = UTC MEAN_ELEMENT_THEORY = SGP/SGP4 EPOCH = 2026-09-12T06:39:20.847168 MEAN_MOTION = 13.71531598 ECCENTRICITY = .01536494 INCLINATION = 89.8592 RA_OF_ASC_NODE = 250.9961 ARG_OF_PERICENTER = 338.6945 MEAN_ANOMALY = 20.7864 EPHEMERIS_TYPE = 0 CLASSIFICATION_TYPE = U NORAD_CAT_ID = 6909 ELEMENT_SET_NO = 999 REV_AT_EPOCH = 84110 BSTAR = .12442E-3 MEAN_MOTION_DOT = .13100E-5 MEAN_MOTION_DDOT = 0 CCSDS_OMM_VERS = 2.0 CREATION_DATE = ORIGINATOR = OBJECT_NAME = TRANSAT OBJECT_ID = 1977-106A CENTER_NAME = EARTH REF_FRAME = TEME TIME_SYSTEM = UTC MEAN_ELEMENT_THEORY = SGP/SGP4 EPOCH = 2026-09-12T01:24:20.764224 MEAN_MOTION = 13.48980601 ECCENTRICITY = .00270825 INCLINATION = 89.6426 RA_OF_ASC_NODE = 68.8142 ARG_OF_PERICENTER = 122.8355 MEAN_ANOMALY = 356.4662 EPHEMERIS_TYPE = 0 CLASSIFICATION_TYPE = U NORAD_CAT_ID = 10457 ELEMENT_SET_NO = 999 REV_AT_EPOCH = 40428 BSTAR = .64964E-4 MEAN_MOTION_DOT = .51000E-6 MEAN_MOTION_DDOT = 0 CCSDS_OMM_VERS = 2.0 CREATION_DATE = ORIGINATOR = OBJECT_NAME = NOVA 1 OBJECT_ID = 1981-044A CENTER_NAME = EARTH REF_FRAME = TEME TIME_SYSTEM = UTC MEAN_ELEMENT_THEORY = SGP/SGP4 EPOCH = 2026-09-12T02:02:28.135968 MEAN_MOTION = 13.2330919 ECCENTRICITY = .0016111 INCLINATION = 89.8385 RA_OF_ASC_NODE = 87.331 ARG_OF_PERICENTER = 72.518 MEAN_ANOMALY = 50.6583 EPHEMERIS_TYPE = 0 CLASSIFICATION_TYPE = U NORAD_CAT_ID = 12458 ELEMENT_SET_NO = 999 REV_AT_EPOCH = 18801 BSTAR = .35794E-4 MEAN_MOTION_DOT = .24000E-6 MEAN_MOTION_DDOT = 0 CCSDS_OMM_VERS = 2.0 CREATION_DATE = ORIGINATOR = OBJECT_NAME = NOVA 3 OBJECT_ID = 1984-110A CENTER_NAME = EARTH REF_FRAME = TEME TIME_SYSTEM = UTC MEAN_ELEMENT_THEORY = SGP/SGP4 EPOCH = 2026-09-12T02:00:11.968704 MEAN_MOTION = 13.23076421 ECCENTRICITY = .00299166 INCLINATION = 90.1112 RA_OF_ASC_NODE = 83.6114 ARG_OF_PERICENTER = 297.753 MEAN_ANOMALY = 183.2142 EPHEMERIS_TYPE = 0 CLASSIFICATION_TYPE = U NORAD_CAT_ID = 15362 ELEMENT_SET_NO = 999 REV_AT_EPOCH = 2312 BSTAR = .33990E-4 MEAN_MOTION_DOT = .22000E-6 MEAN_MOTION_DDOT = 0 CCSDS_OMM_VERS = 2.0 CREATION_DATE = ORIGINATOR = OBJECT_NAME = OSCAR 30 OBJECT_ID = 1985-066A CENTER_NAME = EARTH REF_FRAME = TEME TIME_SYSTEM = UTC MEAN_ELEMENT_THEORY = SGP/SGP4 EPOCH = 2026-09-12T04:07:29.429760 MEAN_MOTION = 13.36123266 ECCENTRICITY = .01689443 INCLINATION = 90.1464 RA_OF_ASC_NODE = 104.0707 ARG_OF_PERICENTER = 32.6948 MEAN_ANOMALY = 87.9653 EPHEMERIS_TYPE = 0 CLASSIFICATION_TYPE = U NORAD_CAT_ID = 15935 ELEMENT_SET_NO = 999 REV_AT_EPOCH = 96 BSTAR = .15402E-3 MEAN_MOTION_DOT = .95000E-6 MEAN_MOTION_DDOT = 0 CCSDS_OMM_VERS = 2.0 CREATION_DATE = ORIGINATOR = OBJECT_NAME = OSCAR 24 OBJECT_ID = 1985-066B CENTER_NAME = EARTH REF_FRAME = TEME TIME_SYSTEM = UTC MEAN_ELEMENT_THEORY = SGP/SGP4 EPOCH = 2026-09-12T02:36:58.199616 MEAN_MOTION = 13.35978449 ECCENTRICITY = .01701374 INCLINATION = 90.1626 RA_OF_ASC_NODE = 96.9238 ARG_OF_PERICENTER = 39.4409 MEAN_ANOMALY = 73.7381 EPHEMERIS_TYPE = 0 CLASSIFICATION_TYPE = U NORAD_CAT_ID = 15936 ELEMENT_SET_NO = 999 REV_AT_EPOCH = 294 BSTAR = .99847E-4 MEAN_MOTION_DOT = .65000E-6 MEAN_MOTION_DDOT = 0 CCSDS_OMM_VERS = 2.0 CREATION_DATE = ORIGINATOR = OBJECT_NAME = POLAR BEAR OBJECT_ID = 1986-088A CENTER_NAME = EARTH REF_FRAME = TEME TIME_SYSTEM = UTC MEAN_ELEMENT_THEORY = SGP/SGP4 EPOCH = 2026-09-12T06:33:57.966912 MEAN_MOTION = 13.75300635 ECCENTRICITY = .00401744 INCLINATION = 89.6256 RA_OF_ASC_NODE = 172.9358 ARG_OF_PERICENTER = 18.2096 MEAN_ANOMALY = 146.8542 EPHEMERIS_TYPE = 0 CLASSIFICATION_TYPE = U NORAD_CAT_ID = 17070 ELEMENT_SET_NO = 999 REV_AT_EPOCH = 99738 BSTAR = .70574E-4 MEAN_MOTION_DOT = .79000E-6 MEAN_MOTION_DDOT = 0 CCSDS_OMM_VERS = 2.0 CREATION_DATE = ORIGINATOR = OBJECT_NAME = OSCAR 27 OBJECT_ID = 1987-080A CENTER_NAME = EARTH REF_FRAME = TEME TIME_SYSTEM = UTC MEAN_ELEMENT_THEORY = SGP/SGP4 EPOCH = 2026-09-12T02:29:34.121760 MEAN_MOTION = 13.44953577 ECCENTRICITY = .01043014 INCLINATION = 90.3619 RA_OF_ASC_NODE = 89.3449 ARG_OF_PERICENTER = 160.5773 MEAN_ANOMALY = 199.9396 EPHEMERIS_TYPE = 0 CLASSIFICATION_TYPE = U NORAD_CAT_ID = 18361 ELEMENT_SET_NO = 999 REV_AT_EPOCH = 91231 BSTAR = .11584E-3 MEAN_MOTION_DOT = .79000E-6 MEAN_MOTION_DDOT = 0 CCSDS_OMM_VERS = 2.0 CREATION_DATE = ORIGINATOR = OBJECT_NAME = OSCAR 29 OBJECT_ID = 1987-080B CENTER_NAME = EARTH REF_FRAME = TEME TIME_SYSTEM = UTC MEAN_ELEMENT_THEORY = SGP/SGP4 EPOCH = 2026-09-12T01:42:21.508992 MEAN_MOTION = 13.44489224 ECCENTRICITY = .01050528 INCLINATION = 90.3628 RA_OF_ASC_NODE = 89.8217 ARG_OF_PERICENTER = 184.344 MEAN_ANOMALY = 296.6941 EPHEMERIS_TYPE = 0 CLASSIFICATION_TYPE = U NORAD_CAT_ID = 18362 ELEMENT_SET_NO = 999 REV_AT_EPOCH = 91182 BSTAR = .93164E-4 MEAN_MOTION_DOT = .64000E-6 MEAN_MOTION_DDOT = 0 CCSDS_OMM_VERS = 2.0 CREATION_DATE = ORIGINATOR = OBJECT_NAME = OSCAR 23 OBJECT_ID = 1988-033A CENTER_NAME = EARTH REF_FRAME = TEME TIME_SYSTEM = UTC MEAN_ELEMENT_THEORY = SGP/SGP4 EPOCH = 2026-09-12T06:49:58.829088 MEAN_MOTION = 13.27827771 ECCENTRICITY = .01907476 INCLINATION = 90.3352 RA_OF_ASC_NODE = 25.0569 ARG_OF_PERICENTER = 139.2548 MEAN_ANOMALY = 244.7651 EPHEMERIS_TYPE = 0 CLASSIFICATION_TYPE = U NORAD_CAT_ID = 19070 ELEMENT_SET_NO = 999 REV_AT_EPOCH = 85883 BSTAR = .45585E-4 MEAN_MOTION_DOT = .32000E-6 MEAN_MOTION_DDOT = 0 CCSDS_OMM_VERS = 2.0 CREATION_DATE = ORIGINATOR = OBJECT_NAME = OSCAR 32 OBJECT_ID = 1988-033B CENTER_NAME = EARTH REF_FRAME = TEME TIME_SYSTEM = UTC MEAN_ELEMENT_THEORY = SGP/SGP4 EPOCH = 2026-09-12T07:18:17.642304 MEAN_MOTION = 13.27989045 ECCENTRICITY = .01893962 INCLINATION = 90.3358 RA_OF_ASC_NODE = 25.2041 ARG_OF_PERICENTER = 125.9453 MEAN_ANOMALY = 263.4831 EPHEMERIS_TYPE = 0 CLASSIFICATION_TYPE = U NORAD_CAT_ID = 19071 ELEMENT_SET_NO = 999 REV_AT_EPOCH = 85896 BSTAR = .46813E-4 MEAN_MOTION_DOT = .33000E-6 MEAN_MOTION_DDOT = 0 CCSDS_OMM_VERS = 2.0 CREATION_DATE = ORIGINATOR = OBJECT_NAME = NOVA 2 OBJECT_ID = 1988-052A CENTER_NAME = EARTH REF_FRAME = TEME TIME_SYSTEM = UTC MEAN_ELEMENT_THEORY = SGP/SGP4 EPOCH = 2026-09-12T00:48:42.306336 MEAN_MOTION = 13.22964196 ECCENTRICITY = .00299215 INCLINATION = 89.9784 RA_OF_ASC_NODE = 77.8139 ARG_OF_PERICENTER = 343.7918 MEAN_ANOMALY = 136.7678 EPHEMERIS_TYPE = 0 CLASSIFICATION_TYPE = U NORAD_CAT_ID = 19223 ELEMENT_SET_NO = 999 REV_AT_EPOCH = 84561 BSTAR = .13057E-3 MEAN_MOTION_DOT = .64000E-6 MEAN_MOTION_DDOT = 0 CCSDS_OMM_VERS = 2.0 CREATION_DATE = ORIGINATOR = OBJECT_NAME = OSCAR 25 OBJECT_ID = 1988-074A CENTER_NAME = EARTH REF_FRAME = TEME TIME_SYSTEM = UTC MEAN_ELEMENT_THEORY = SGP/SGP4 EPOCH = 2026-09-12T07:33:57.659616 MEAN_MOTION = 13.4266943 ECCENTRICITY = .00961828 INCLINATION = 90.0484 RA_OF_ASC_NODE = 21.3166 ARG_OF_PERICENTER = 184.6348 MEAN_ANOMALY = 204.2657 EPHEMERIS_TYPE = 0 CLASSIFICATION_TYPE = U NORAD_CAT_ID = 19419 ELEMENT_SET_NO = 999 REV_AT_EPOCH = 86311 BSTAR = .80139E-4 MEAN_MOTION_DOT = .56000E-6 MEAN_MOTION_DDOT = 0 CCSDS_OMM_VERS = 2.0 CREATION_DATE = ORIGINATOR = OBJECT_NAME = OSCAR 31 OBJECT_ID = 1988-074B CENTER_NAME = EARTH REF_FRAME = TEME TIME_SYSTEM = UTC MEAN_ELEMENT_THEORY = SGP/SGP4 EPOCH = 2026-09-12T06:31:44.558400 MEAN_MOTION = 13.42621086 ECCENTRICITY = .00945642 INCLINATION = 90.05 RA_OF_ASC_NODE = 21.7113 ARG_OF_PERICENTER = 179.0403 MEAN_ANOMALY = 200.957 EPHEMERIS_TYPE = 0 CLASSIFICATION_TYPE = U NORAD_CAT_ID = 19420 ELEMENT_SET_NO = 999 REV_AT_EPOCH = 86321 BSTAR = .81691E-4 MEAN_MOTION_DOT = .57000E-6 MEAN_MOTION_DDOT = 0